Tracking 33470 objects as of 12-Mar-2026
HD Live streaming from Space Station
objects crossing your sky now

SL-24 R/B

Track SL-24 R/B now!
10-day predictions


NORAD ID: 31699
Int'l Code: 2007-026B
Perigee: 510.0 km
Apogee: 982.6 km
Inclination: 97.5 °
Period: 99.6 minutes
Semi major axis: 7117 km
RCS: 6.666 m2 (large)
Launch date: June 15, 2007
Source: Commonwealth of Independent States (former USSR) (CIS)
Launch site: TYURATAM MISSILE AND SPACE COMPLEX (TTMTR)

Note: This is a ROCKET BODY
Your satellite tracking list
Your tracking list is empty




NASA's NSSDC Master Catalog

Two Line Element Set (TLE):
1 31699U 07026B   26070.95154417  .00001396  00000-0  20542-3 0  9999
2 31699  97.4508  52.8527 0332006 300.7865 114.1274 14.45865941985475
Source of the keplerian elements: AFSPC